Starlink 32481

operational
NORAD ID: 62320 Int'l Des: 2024-239 Owner: SPXS Country: US Constellation: starlink
LEOCIRCULAR

About Starlink 32481

Description loading...

Live Position

Loading 3D Globe...

Upcoming Passes

Altitude History

Altitude vs Time

uPlot chart will show altitude changes over time

Two-Line Element Set

1 62320U 24239V 25352.80344834 .00007589 00000-0 26811-3 0 9994
2 62320 53.1574 196.5777 0001415 91.1696 268.9467 15.30199911 57187
Epoch: Dec 18, 2025 • Age: 14 hours

Current Status

Altitude 476.3 km
Velocity 7.63 km/s
Sub-Earth Point -1.36°S, 36.14°W
Launch Date Dec 13, 2024
Age 1 years
Type internet

Technical Details

Classification Payload
Mass 730.00 kg
Dry Mass 700.00 kg
Total Mass 730.00 kg
Length 0.30 m
Diameter 4.10 m
Span 29.00 m
Shape Box + pan
Manufacturer SPXS
Bus Type Starlink V2M
Phase Status In Orbit
Owner/State SPXS/US

Large Constellations

Loading constellations...